Location: Dumpton Point
(51.3500°N, 1.4433°E)
Time: 06:46:54
(UTC+00:00)

SL-24 R/B - RUBIN 2 - Pass Details

Date: 09 April 2020
Orbit: 569 x 1026 km, 64.6° (Epoch: 02 June)

Event Time Altitude Azimuth Distance (km) Brightness Sun altitude
Rises 19:22:10 0° 203° (SSW) 3,271 7.3 -6.9°
Reaches altitude 10° 19:24:30 10° 199° (SSW) 2,414 6.6 -7.2°
Maximum altitude 19:30:00 56° 123° (ESE) 1,060 4.4 -8.0°
Drops below altitude 10° 19:36:11 10° 47° (NE) 2,713 6.6 -8.9°
Sets 19:38:56 0° 44° (NE) 3,710 7.3 -9.3°
